星链-5434 (STARLINK-5434 )

导读

STARLINK-5434是美国太空探索技术公司(SpaceX)星链星座的组网卫星,于2022年12月28日发射,归属星链互联网星座项目,运行于近地轨道。 作为星链组网卫星,它为实现全球无缝覆盖的高速互联网服务提供支撑,可填补偏远地区网络覆盖空白,助力增强星座通信容量与服务稳定性,是SpaceX大规模低轨星座部署进程中的组成单元。

Basic Information
目录编号:
54849
目录名称:
STARLINK-5434
国际标识:
2022-177AF
轨道中心:
EARTH
卫星名称:
星链-5434
卫星全名:
星链-5434 (STARLINK-5434 )
卫星状态:
已陨落 最后检测时间 2025-10-05
发射日期:
2022-12-28 UTC
国别 :
美国 (US)
星等 :
--
Orbit Information
数据来源 国际轨道数据
星历时间: 2025-10-04T19:28:55+0800
轨道信息已过期255天
半长轴: 6557.095km
偏心率: 0.0003547
轨道倾角: 42.986°
近地点辐角 227.176°
升交点赤经 206.088°
平近点角 132.883°
近地点: 176.634km
远地点: 181.286km
周期: 88.070分钟
每日圈数: 16.35067
Detailed Information
固有亮度:
5
最大亮度:
2.5
卫星平台:
Starlink v1.5
覆盖范围:
全球
运营商:
太空探索技术公司
运营商所在国:
美国
制造商(研发单位):
太空探索技术公司
制造商所在国:
美国
使用方式:
暂无
Satellite Introduction
星链(Starlink)计划是由太空探索技术公司(SpaceX)提出的一个巨型低轨卫星互联网星座项目,计划在2019年至2024年间在太空搭建由约1.2万颗卫星组成的“星链”网络,其中1584颗将部署在地球上空550千米处的近地轨道,并从2020年开始工作。该卫星仍在工作。